DW2671 Weather Reports


time (UTC)temp
F
wind
direction
speed
knots
gust
knots
rain 1hr
in
rain 24hr
in
rain mn
in
humidity
%
barometer
mb
20260507155103 61 289 3.5 10.4 0.00 0.29 0.21 50 1010.1
20260507154104 60 225 2.6 8.7 0.00 0.29 0.21 50 1010.5
20260507153105 60 242 3.5 7.8 0.00 0.29 0.21 52 1010.5
20260507152105 61 315 6.1 6.1 0.00 0.29 0.21 54 1010.5
20260507151104 61 249 2.6 5.2 0.00 0.29 0.21 57 1010.5
20260507150104 59 255 3.5 5.2 0.00 0.29 0.21 64 1010.5
20260507145103 59 207 3.5 8.7 0.00 0.29 0.21 70 1010.5
20260507144104 58 21 3.5 6.1 0.00 0.29 0.21 71 1010.5
20260507143104 58 281 3.5 6.1 0.00 0.29 0.21 78 1010.5
20260507142104 57 263 6.1 10.4 0.00 0.29 0.21 70 1010.5
20260507141104 56 213 7.0 8.7 0.00 0.29 0.21 80 1010.5
20260507135104 56 264 2.6 2.6 0.00 0.29 0.21 80 1010.5
20260507134104 55 293 2.6 5.2 0.00 0.29 0.21 87 1010.5
20260507133104 55 269 0.9 1.7 0.00 0.29 0.21 94 1010.5
20260507132104 55 256 0.9 1.7 0.00 0.29 0.21 90 1010.5
20260507131104 54 308 1.7 2.6 0.00 0.29 0.21 92 1010.5
20260507130103 54 295 1.7 2.6 0.00 0.29 0.21 91 1010.5
20260507124104 52 305 0.9 1.7 0.00 0.29 0.21 97 1009.8
20260507123104 51 270 4.3 2.6 0.00 0.29 0.21 97 1009.8
20260507121103 50 263 1.7 1.7 0.00 0.29 0.21 97 1009.8
20260507120106 50 292 1.7 1.7 0.00 0.29 0.21 97 1009.4
20260507115104 49 270 0.0 0.9 0.01 0.29 0.21 97 1009.4
20260507113103 49 292 0.0 0.9 0.01 0.29 0.21 97 1009.4
20260507111105 49 292 0.0 0.0 0.02 0.29 0.21 97 1009.1
20260507110105 49 292 0.0 0.0 0.03 0.29 0.21 97 1009.1
20260507105105 48 292 0.0 0.0 0.02 0.28 0.19 97 1009.1
20260507104105 48 292 0.0 0.0 0.03 0.28 0.19 97 1009.1
20260507103103 48 292 0.0 0.0 0.03 0.28 0.19 97 1009.1
20260507100105 48 292 0.0 5.2 0.03 0.26 0.17 97 1009.1
20260507095104 48 247 0.9 1.7 0.04 0.26 0.17 97 1009.1
20260507094104 48 270 0.9 1.7 0.04 0.25 0.16 97 1008.8
20260507093106 48 270 0.9 2.6 0.06 0.25 0.16 97 1008.8
20260507092104 49 292 0.9 1.7 0.08 0.24 0.15 97 1008.8
20260507091104 49 248 0.9 1.7 0.08 0.23 0.14 97 1008.8
20260507090105 49 253 0.9 5.2 0.09 0.23 0.14 97 1008.4
20260507084105 49 277 0.9 2.6 0.08 0.21 0.12 97 1009.1
20260507083106 49 270 0.9 1.7 0.08 0.18 0.10 97 1009.1
20260507082105 49 270 0.0 0.0 0.06 0.16 0.08 97 1008.8
20260507081104 50 270 0.0 0.0 0.05 0.15 0.06 97 1008.8
20260507075106 50 255 0.0 1.7 0.03 0.13 0.04 95 1009.2
20260507074105 51 278 0.9 5.2 0.03 0.13 0.04 93 1008.8
20260507073105 53 262 2.6 6.1 0.01 0.11 0.02 92 1009.1
20260507072104 54 271 1.7 5.2 0.00 0.10 0.01 90 1008.4
20260507071104 54 301 1.7 5.2 0.00 0.10 0.01 91 1008.1
20260507070104 54 270 1.7 5.2 0.00 0.10 0.01 91 1008.4
20260507065104 55 315 0.0 2.6 0.00 0.10 0.01 91 1008.4
20260507064105 55 202 0.9 2.6 0.00 0.10 0.01 91 1008.4
20260507063105 55 268 2.6 6.1 0.00 0.10 0.01 93 1008.8
20260507062104 56 284 0.0 1.7 0.00 0.10 0.01 97 1008.8
20260507061104 56 285 0.0 1.7 0.00 0.10 0.01 97 1008.8
20260507060105 56 225 0.0 0.9 0.00 0.10 0.01 97 1008.8
20260507054104 57 250 0.9 6.1 0.00 0.10 0.01 97 1009.1
20260507053106 57 299 2.6 5.2 0.00 0.10 0.01 97 1009.1
20260507052104 57 270 0.9 1.7 0.00 0.10 0.01 97 1009.1
20260507051104 57 280 1.7 1.7 0.00 0.10 0.01 97 1009.1
20260507050104 58 286 2.6 7.0 0.01 0.10 0.01 97 1009.1
20260507045104 58 294 1.7 2.6 0.01 0.10 0.01 98 1009.1
20260507044105 59 287 2.6 7.0 0.01 0.10 0.01 98 1009.1
20260507043105 59 236 0.9 1.7 0.01 0.10 0.01 98 1008.8
20260507042105 59 225 0.9 1.7 0.01 0.10 0.01 98 1008.8
20260507041105 59 270 0.0 1.7 0.01 0.10 0.01 98 1009.1
20260507040105 59 270 0.9 1.7 0.00 0.09 0.00 98 1009.1
20260507035104 59 227 0.9 7.0 0.00 0.09 0.09 98 1009.1
20260507034105 59 249 2.6 7.0 0.00 0.09 0.09 98 1009.1
20260507033105 59 301 1.7 6.1 0.00 0.09 0.09 98 1009.1
20260507032104 59 239 1.7 5.2 0.00 0.09 0.09 98 1009.1
20260507031105 59 306 0.9 7.0 0.00 0.09 0.09 98 1008.8
20260507030104 59 264 2.6 7.0 0.00 0.09 0.09 98 1008.8
20260507025104 59 188 1.7 7.0 0.00 0.09 0.09 98 1008.8
20260507024106 59 270 1.7 5.2 0.00 0.09 0.09 98 1008.4
20260507022105 59 208 1.7 6.1 0.00 0.09 0.09 98 1008.8
20260507021105 59 210 1.7 7.8 0.00 0.09 0.09 98 1008.8
20260507020105 58 195 1.7 5.2 0.00 0.09 0.09 98 1008.8
20260507015104 58 166 4.3 7.0 0.00 0.09 0.09 98 1008.4
20260507014104 58 203 1.7 1.7 0.00 0.09 0.09 98 1008.4
20260507013105 58 200 1.7 7.0 0.00 0.09 0.09 98 1008.8
20260507012104 58 151 0.9 5.2 0.00 0.09 0.09 97 1008.8
20260507010105 58 186 0.9 5.2 0.00 0.09 0.09 97 1009.1
20260507005105 58 247 2.6 2.6 0.00 0.09 0.09 97 1009.1
20260507004106 58 232 1.7 7.8 0.01 0.09 0.09 97 1009.1
20260506235104 58 117 1.7 5.2 0.03 0.09 0.09 97 1008.8
20260506234105 58 164 1.7 5.2 0.02 0.08 0.08 97 1008.8
20260506233104 58 156 1.7 5.2 0.01 0.06 0.06 98 1008.4
20260506232104 58 197 4.3 7.0 0.01 0.06 0.06 98 1008.8
20260506230105 59 189 3.5 7.8 0.00 0.05 0.05 98 1008.8
20260506225104 59 164 4.3 6.1 0.00 0.05 0.05 98 1008.8
20260506223106 59 141 1.7 1.7 0.01 0.05 0.05 98 1008.8
20260506222103 59 174 2.6 7.0 0.01 0.05 0.05 98 1009.1
20260506221105 59 128 1.7 5.2 0.01 0.05 0.05 98 1009.1
20260506220105 59 160 4.3 7.0 0.01 0.05 0.05 98 1009.1
20260506215104 60 166 2.6 7.8 0.02 0.05 0.05 98 1009.1
20260506214103 60 154 0.9 10.4 0.03 0.05 0.05 98 1009.1
20260506213105 60 154 2.6 7.8 0.02 0.04 0.04 97 1009.4
20260506212104 60 153 4.3 7.0 0.02 0.04 0.04 97 1009.8
20260506205105 60 180 3.5 7.0 0.02 0.03 0.03 95 1009.8
20260506204106 61 123 4.3 8.7 0.01 0.02 0.02 93 1010.1
20260506202105 61 196 4.3 13.9 0.02 0.02 0.02 91 1010.5
20260506201104 61 236 2.6 6.1 0.01 0.01 0.01 91 1010.5
20260506200105 61 180 1.7 7.8 0.01 0.01 0.01 90 1010.5
20260506195104 62 214 4.3 7.8 0.01 0.01 0.01 87 1010.1
20260506194103 62 192 2.6 10.4 0.01 0.01 0.01 85 1010.5
20260506193105 63 167 1.7 5.2 0.01 0.01 0.01 83 1010.8
20260506191105 64 189 1.7 5.2 0.00 0.00 0.00 77 1011.1
20260506190103 66 176 6.1 12.2 0.00 0.00 0.00 71 1011.1
20260506183105 68 198 5.2 10.4 0.00 0.00 0.00 62 1011.1
20260506182105 69 169 6.1 12.2 0.00 0.00 0.00 61 1011.5
20260506181105 69 176 3.5 7.8 0.00 0.00 0.00 61 1011.5
20260506180105 69 175 2.6 7.0 0.00 0.00 0.00 60 1011.8
20260506175105 70 150 2.6 12.2 0.00 0.00 0.00 58 1011.8
20260506174105 71 144 4.3 13.9 0.00 0.00 0.00 56 1012.2
20260506173105 71 188 7.0 19.1 0.00 0.00 0.00 54 1012.2
20260506172104 72 174 10.4 13.0 0.00 0.00 0.00 54 1012.2
20260506171105 72 354 5.2 7.8 0.00 0.00 0.00 55 1011.8
20260506170104 72 182 5.2 7.8 0.00 0.00 0.00 55 1012.2
20260506165104 72 38 2.6 7.0 0.00 0.00 0.00 57 1012.2
20260506164104 72 184 2.6 7.8 0.00 0.00 0.00 57 1012.5
20260506162105 72 193 1.7 7.0 0.00 0.00 0.00 55 1012.8
20260506161104 72 150 4.3 10.4 0.00 0.00 0.00 54 1012.8
20260506160104 72 198 2.6 10.4 0.00 0.00 0.00 54 1012.8